Torna al catalogo

STARLINK-35935

AttivoComunicazioniVLEO
NORAD 66527·PAYLOAD·🇺🇸 United States

Lanciato Nov 19, 2025 da Cape Canaveral Space Force Station

Loading…

Prossimi Passaggi (prossime 24 ore)

TLE

AggiornatoSource: CelesTrak SupGP

Epoca: Sep 14, 2026, 21:10 UTC

1 66527C 25265M   26257.88243056 -.00001047  00000+0 -37909-4 0  2576
2 66527  43.0015 289.6523 0001431 262.9777 179.7103 15.27574019    15

Traccia STARLINK-35935 in tempo reale con AllMySat

Download on the App Store